owner,sensor,date,latitude,longitude,air_pressure(mBar),qcFlag 
TABS,ioos:station:wmo:42046:1,2009-01-01T00:00:00Z,27.8903,-94.0367,1020.92,11111222 
TABS,ioos:station:wmo:42046:1,2009-01-01T00:30:00Z,27.8903,-94.0367,1020.88,11111222 
TABS,ioos:station:wmo:42046:1,2009-01-01T01:00:00Z,27.8903,-94.0367,1021.29,11111222 
TABS,ioos:station:wmo:42046:1,2009-01-01T01:30:00Z,27.8903,-94.0367,1021.35,11111222 
TABS,ioos:station:wmo:42046:1,2009-01-01T02:00:00Z,27.8903,-94.0367,1021.66,11111222 
TABS,ioos:station:wmo:42046:1,2009-01-01T02:30:00Z,27.8903,-94.0367,1021.61,11111222 
TABS,ioos:station:wmo:42046:1,2009-01-01T03:00:00Z,27.8903,-94.0367,1021.54,11111222 
TABS,ioos:station:wmo:42046:1,2009-01-01T03:30:00Z,27.8903,-94.0367,1021.69,11111222 
TABS,ioos:station:wmo:42046:1,2009-01-01T04:00:00Z,27.8903,-94.0367,1021.54,11111222 
TABS,ioos:station:wmo:42046:1,2009-01-01T04:30:00Z,27.8903,-94.0367,1021.29,11111222 
TABS,ioos:station:wmo:42046:1,2009-01-01T05:00:00Z,27.8903,-94.0367,1020.63,11111222 
TABS,ioos:station:wmo:42046:1,2009-01-01T05:30:00Z,27.8903,-94.0367,1020.81,11111222 
TABS,ioos:station:wmo:42046:1,2009-01-01T06:00:00Z,27.8903,-94.0367,1020.25,11111222 
TABS,ioos:station:wmo:42046:1,2009-01-01T06:30:00Z,27.8903,-94.0367,1019.82,11111222 
TABS,ioos:station:wmo:42046:1,2009-01-01T07:00:00Z,27.8903,-94.0367,1019.35,11111222 
TABS,ioos:station:wmo:42046:1,2009-01-01T07:30:00Z,27.8903,-94.0367,1019.06,11111222 
TABS,ioos:station:wmo:42046:1,2009-01-01T08:00:00Z,27.8903,-94.0367,1018.59,11111222 
TABS,ioos:station:wmo:42046:1,2009-01-01T08:30:00Z,27.8903,-94.0367,1018.58,11111222 
TABS,ioos:station:wmo:42046:1,2009-01-01T09:00:00Z,27.8903,-94.0367,1017.98,11111222 
TABS,ioos:station:wmo:42046:1,2009-01-01T09:30:00Z,27.8903,-94.0367,1017.97,11111222 
TABS,ioos:station:wmo:42046:1,2009-01-01T10:00:00Z,27.8903,-94.0367,1018.1,11111222 
TABS,ioos:station:wmo:42046:1,2009-01-01T10:30:00Z,27.8903,-94.0367,1018.11,11111222 
TABS,ioos:station:wmo:42046:1,2009-01-01T11:00:00Z,27.8903,-94.0367,1018.05,11111222 
TABS,ioos:station:wmo:42046:1,2009-01-01T11:30:00Z,27.8903,-94.0367,1018.16,11111222 
TABS,ioos:station:wmo:42046:1,2009-01-01T12:00:00Z,27.8903,-94.0367,1018.26,11111222 
TABS,ioos:station:wmo:42046:1,2009-01-01T12:30:00Z,27.8903,-94.0367,1018.61,11111222 
TABS,ioos:station:wmo:42046:1,2009-01-01T13:00:00Z,27.8903,-94.0367,1018.52,11111222 
TABS,ioos:station:wmo:42046:1,2009-01-01T13:30:00Z,27.8903,-94.0367,1018.72,11111222 
TABS,ioos:station:wmo:42046:1,2009-01-01T14:00:00Z,27.8903,-94.0367,1019.01,11111222 
TABS,ioos:station:wmo:42046:1,2009-01-01T14:30:00Z,27.8903,-94.0367,1019.03,11111222 
TABS,ioos:station:wmo:42046:1,2009-01-01T15:00:00Z,27.8903,-94.0367,1019.36,11111222 
TABS,ioos:station:wmo:42046:1,2009-01-01T15:30:00Z,27.8903,-94.0367,1019.42,11111222 
TABS,ioos:station:wmo:42046:1,2009-01-01T16:00:00Z,27.8903,-94.0367,1019.36,11111222 
TABS,ioos:station:wmo:42046:1,2009-01-01T16:30:00Z,27.8903,-94.0367,1018.98,11111222 
TABS,ioos:station:wmo:42046:1,2009-01-01T17:00:00Z,27.8903,-94.0367,1018.69,11111222 
TABS,ioos:station:wmo:42046:1,2009-01-01T17:30:00Z,27.8903,-94.0367,1017.95,11111222 
TABS,ioos:station:wmo:42046:1,2009-01-01T18:00:00Z,27.8903,-94.0367,1017.49,11111222 
TABS,ioos:station:wmo:42046:1,2009-01-01T18:30:00Z,27.8903,-94.0367,1016.97,11111222 
TABS,ioos:station:wmo:42046:1,2009-01-01T19:00:00Z,27.8903,-94.0367,1016.39,11111222 
TABS,ioos:station:wmo:42046:1,2009-01-01T19:30:00Z,27.8903,-94.0367,1016.1,11111222 
TABS,ioos:station:wmo:42046:1,2009-01-01T20:00:00Z,27.8903,-94.0367,1015.57,11111222 
TABS,ioos:station:wmo:42046:1,2009-01-01T20:30:00Z,27.8903,-94.0367,1015.37,11111222 
TABS,ioos:station:wmo:42046:1,2009-01-01T21:00:00Z,27.8903,-94.0367,1015.13,11111222 
TABS,ioos:station:wmo:42046:1,2009-01-01T21:30:00Z,27.8903,-94.0367,1014.88,11111222 
TABS,ioos:station:wmo:42046:1,2009-01-01T22:00:00Z,27.8903,-94.0367,1014.86,11111222 
TABS,ioos:station:wmo:42046:1,2009-01-01T22:30:00Z,27.8903,-94.0367,1014.72,11111222 
TABS,ioos:station:wmo:42046:1,2009-01-01T23:00:00Z,27.8903,-94.0367,1014.82,11111222 
TABS,ioos:station:wmo:42046:1,2009-01-01T23:30:00Z,27.8903,-94.0367,1014.54,11111222 
TABS,ioos:station:wmo:42046:1,2009-01-02T00:00:00Z,27.8903,-94.0367,1014.69,11111222 
TABS,ioos:station:wmo:42046:1,2009-01-02T00:30:00Z,27.8903,-94.0367,1014.68,11111222 
TABS,ioos:station:wmo:42046:1,2009-01-02T01:00:00Z,27.8903,-94.0367,1014.84,11111222 
TABS,ioos:station:wmo:42046:1,2009-01-02T01:30:00Z,27.8903,-94.0367,1014.89,11111222 
TABS,ioos:station:wmo:42046:1,2009-01-02T02:00:00Z,27.8903,-94.0367,1014.83,11111222 
TABS,ioos:station:wmo:42046:1,2009-01-02T02:30:00Z,27.8903,-94.0367,1015.09,11111222 
TABS,ioos:station:wmo:42046:1,2009-01-02T03:00:00Z,27.8903,-94.0367,1014.97,11111222 
TABS,ioos:station:wmo:42046:1,2009-01-02T03:30:00Z,27.8903,-94.0367,1014.53,11111222 
TABS,ioos:station:wmo:42046:1,2009-01-02T04:00:00Z,27.8903,-94.0367,1014.44,11111222 
TABS,ioos:station:wmo:42046:1,2009-01-02T04:30:00Z,27.8903,-94.0367,1014.28,11111222 
TABS,ioos:station:wmo:42046:1,2009-01-02T05:00:00Z,27.8903,-94.0367,1014.56,11111222 
TABS,ioos:station:wmo:42046:1,2009-01-02T05:30:00Z,27.8903,-94.0367,1014.45,11111222 
TABS,ioos:station:wmo:42046:1,2009-01-02T06:00:00Z,27.8903,-94.0367,1014.11,11111222 
TABS,ioos:station:wmo:42046:1,2009-01-02T06:30:00Z,27.8903,-94.0367,1013.98,11111222 
TABS,ioos:station:wmo:42046:1,2009-01-02T07:00:00Z,27.8903,-94.0367,1014.17,11111222 
TABS,ioos:station:wmo:42046:1,2009-01-02T07:30:00Z,27.8903,-94.0367,1014.15,11111222 
TABS,ioos:station:wmo:42046:1,2009-01-02T08:00:00Z,27.8903,-94.0367,1014.12,11111222 
TABS,ioos:station:wmo:42046:1,2009-01-02T08:30:00Z,27.8903,-94.0367,1014.25,11111222 
TABS,ioos:station:wmo:42046:1,2009-01-02T09:00:00Z,27.8903,-94.0367,1014.16,11111222 
TABS,ioos:station:wmo:42046:1,2009-01-02T09:30:00Z,27.8903,-94.0367,1013.93,11111222 
TABS,ioos:station:wmo:42046:1,2009-01-02T10:00:00Z,27.8903,-94.0367,1013.93,11111222 
TABS,ioos:station:wmo:42046:1,2009-01-02T10:30:00Z,27.8903,-94.0367,1014.02,11111222 
TABS,ioos:station:wmo:42046:1,2009-01-02T11:00:00Z,27.8903,-94.0367,1014.09,11111222 
TABS,ioos:station:wmo:42046:1,2009-01-02T11:30:00Z,27.8903,-94.0367,1014.27,11111222 
TABS,ioos:station:wmo:42046:1,2009-01-02T12:00:00Z,27.8903,-94.0367,1014.41,11111222 
TABS,ioos:station:wmo:42046:1,2009-01-02T12:30:00Z,27.8903,-94.0367,1014.76,11111222 
TABS,ioos:station:wmo:42046:1,2009-01-02T13:00:00Z,27.8903,-94.0367,1014.78,11111222 
TABS,ioos:station:wmo:42046:1,2009-01-02T13:30:00Z,27.8903,-94.0367,1015.02,11111222 
TABS,ioos:station:wmo:42046:1,2009-01-02T14:00:00Z,27.8903,-94.0367,1015.14,11111222 
TABS,ioos:station:wmo:42046:1,2009-01-02T14:30:00Z,27.8903,-94.0367,1015.22,11111222 
TABS,ioos:station:wmo:42046:1,2009-01-02T15:00:00Z,27.8903,-94.0367,1015.66,11111222 
TABS,ioos:station:wmo:42046:1,2009-01-02T15:30:00Z,27.8903,-94.0367,1015.92,11111222 
TABS,ioos:station:wmo:42046:1,2009-01-02T16:00:00Z,27.8903,-94.0367,1016.1,11111222 
TABS,ioos:station:wmo:42046:1,2009-01-02T16:30:00Z,27.8903,-94.0367,1015.89,11111222 
TABS,ioos:station:wmo:42046:1,2009-01-02T17:00:00Z,27.8903,-94.0367,1015.66,11111222 
TABS,ioos:station:wmo:42046:1,2009-01-02T17:30:00Z,27.8903,-94.0367,1015.19,11111222 
TABS,ioos:station:wmo:42046:1,2009-01-02T18:00:00Z,27.8903,-94.0367,1014.73,11111222 
TABS,ioos:station:wmo:42046:1,2009-01-02T18:30:00Z,27.8903,-94.0367,1013.99,11111222 
TABS,ioos:station:wmo:42046:1,2009-01-02T19:00:00Z,27.8903,-94.0367,1013.56,11111222 
TABS,ioos:station:wmo:42046:1,2009-01-02T19:30:00Z,27.8903,-94.0367,1013.28,11111222 
TABS,ioos:station:wmo:42046:1,2009-01-02T20:00:00Z,27.8903,-94.0367,1012.96,11111222 
TABS,ioos:station:wmo:42046:1,2009-01-02T20:30:00Z,27.8903,-94.0367,1012.8,11111222 
TABS,ioos:station:wmo:42046:1,2009-01-02T21:00:00Z,27.8903,-94.0367,1012.65,11111222 
TABS,ioos:station:wmo:42046:1,2009-01-02T21:30:00Z,27.8903,-94.0367,1012.64,11111222 
TABS,ioos:station:wmo:42046:1,2009-01-02T22:00:00Z,27.8903,-94.0367,1012.71,11111222 
TABS,ioos:station:wmo:42046:1,2009-01-02T22:30:00Z,27.8903,-94.0367,1012.56,11111222 
TABS,ioos:station:wmo:42046:1,2009-01-02T23:00:00Z,27.8903,-94.0367,1012.5,11111222 
TABS,ioos:station:wmo:42046:1,2009-01-02T23:30:00Z,27.8903,-94.0367,1012.87,11111222 
TABS,ioos:station:wmo:42046:1,2009-01-03T00:00:00Z,27.8903,-94.0367,1012.95,11111222 
TABS,ioos:station:wmo:42046:1,2009-01-03T00:30:00Z,27.8903,-94.0367,1013.08,11111222 
TABS,ioos:station:wmo:42046:1,2009-01-03T01:00:00Z,27.8903,-94.0367,1013.16,11111222 
TABS,ioos:station:wmo:42046:1,2009-01-03T01:30:00Z,27.8903,-94.0367,1013.23,11111222 
TABS,ioos:station:wmo:42046:1,2009-01-03T02:00:00Z,27.8903,-94.0367,1013.22,11111222 
TABS,ioos:station:wmo:42046:1,2009-01-03T02:30:00Z,27.8903,-94.0367,1013.05,11111222 
TABS,ioos:station:wmo:42046:1,2009-01-03T03:00:00Z,27.8903,-94.0367,1013.07,11111222 
TABS,ioos:station:wmo:42046:1,2009-01-03T03:30:00Z,27.8903,-94.0367,1012.98,11111222 
TABS,ioos:station:wmo:42046:1,2009-01-03T04:00:00Z,27.8903,-94.0367,1013.27,11111222 
TABS,ioos:station:wmo:42046:1,2009-01-03T04:30:00Z,27.8903,-94.0367,1013.12,11111222 
TABS,ioos:station:wmo:42046:1,2009-01-03T05:00:00Z,27.8903,-94.0367,1012.97,11111222 
TABS,ioos:station:wmo:42046:1,2009-01-03T05:30:00Z,27.8903,-94.0367,1012.52,11111222 
TABS,ioos:station:wmo:42046:1,2009-01-03T06:00:00Z,27.8903,-94.0367,1012.59,11111222 
TABS,ioos:station:wmo:42046:1,2009-01-03T06:30:00Z,27.8903,-94.0367,1012.63,11111222 
TABS,ioos:station:wmo:42046:1,2009-01-03T07:00:00Z,27.8903,-94.0367,1012.02,11111222 
TABS,ioos:station:wmo:42046:1,2009-01-03T07:30:00Z,27.8903,-94.0367,1012.34,11111222 
TABS,ioos:station:wmo:42046:1,2009-01-03T08:00:00Z,27.8903,-94.0367,1012.43,11111222 
TABS,ioos:station:wmo:42046:1,2009-01-03T08:30:00Z,27.8903,-94.0367,1012.31,11111222 
TABS,ioos:station:wmo:42046:1,2009-01-03T09:00:00Z,27.8903,-94.0367,1012.18,11111222 
TABS,ioos:station:wmo:42046:1,2009-01-03T09:30:00Z,27.8903,-94.0367,1012.05,11111222 
TABS,ioos:station:wmo:42046:1,2009-01-03T10:00:00Z,27.8903,-94.0367,1011.84,11111222 
TABS,ioos:station:wmo:42046:1,2009-01-03T10:30:00Z,27.8903,-94.0367,1011.9,11111222 
TABS,ioos:station:wmo:42046:1,2009-01-03T11:00:00Z,27.8903,-94.0367,1012.0,11111222 
TABS,ioos:station:wmo:42046:1,2009-01-03T11:30:00Z,27.8903,-94.0367,1012.36,11111222 
TABS,ioos:station:wmo:42046:1,2009-01-03T12:00:00Z,27.8903,-94.0367,1012.3,11111222 
TABS,ioos:station:wmo:42046:1,2009-01-03T12:30:00Z,27.8903,-94.0367,1013.0,11111222 
TABS,ioos:station:wmo:42046:1,2009-01-03T13:00:00Z,27.8903,-94.0367,1013.0,11111222 
TABS,ioos:station:wmo:42046:1,2009-01-03T13:30:00Z,27.8903,-94.0367,1013.76,11111222 
TABS,ioos:station:wmo:42046:1,2009-01-03T14:00:00Z,27.8903,-94.0367,1013.78,11111222 
TABS,ioos:station:wmo:42046:1,2009-01-03T14:30:00Z,27.8903,-94.0367,1013.72,11111222 
TABS,ioos:station:wmo:42046:1,2009-01-03T15:00:00Z,27.8903,-94.0367,1013.35,11111222 
TABS,ioos:station:wmo:42046:1,2009-01-03T15:30:00Z,27.8903,-94.0367,1013.13,11111222 
TABS,ioos:station:wmo:42046:1,2009-01-03T16:00:00Z,27.8903,-94.0367,1011.88,11111222 
TABS,ioos:station:wmo:42046:1,2009-01-03T16:30:00Z,27.8903,-94.0367,1011.37,11111222 
TABS,ioos:station:wmo:42046:1,2009-01-03T17:00:00Z,27.8903,-94.0367,1011.23,11111222 
TABS,ioos:station:wmo:42046:1,2009-01-03T17:30:00Z,27.8903,-94.0367,1010.63,11111222 
TABS,ioos:station:wmo:42046:1,2009-01-03T18:00:00Z,27.8903,-94.0367,1010.34,11111222 
TABS,ioos:station:wmo:42046:1,2009-01-03T18:30:00Z,27.8903,-94.0367,1009.97,11111222 
TABS,ioos:station:wmo:42046:1,2009-01-03T19:00:00Z,27.8903,-94.0367,1009.71,11111222 
TABS,ioos:station:wmo:42046:1,2009-01-03T19:30:00Z,27.8903,-94.0367,1009.21,11111222 
TABS,ioos:station:wmo:42046:1,2009-01-03T20:00:00Z,27.8903,-94.0367,1009.15,11111222 
TABS,ioos:station:wmo:42046:1,2009-01-03T20:30:00Z,27.8903,-94.0367,1009.24,11111222 
TABS,ioos:station:wmo:42046:1,2009-01-03T21:00:00Z,27.8903,-94.0367,1009.38,11111222 
TABS,ioos:station:wmo:42046:1,2009-01-03T21:30:00Z,27.8903,-94.0367,1009.71,11111222 
TABS,ioos:station:wmo:42046:1,2009-01-03T22:00:00Z,27.8903,-94.0367,1009.7,11111222 
TABS,ioos:station:wmo:42046:1,2009-01-03T22:30:00Z,27.8903,-94.0367,1010.15,11111222 
TABS,ioos:station:wmo:42046:1,2009-01-03T23:00:00Z,27.8903,-94.0367,1010.37,11111222 
TABS,ioos:station:wmo:42046:1,2009-01-03T23:30:00Z,27.8903,-94.0367,1010.48,11111222 
TABS,ioos:station:wmo:42046:1,2009-01-04T00:00:00Z,27.8903,-94.0367,1010.68,11111222 
TABS,ioos:station:wmo:42046:1,2009-01-04T00:30:00Z,27.8903,-94.0367,1011.1,11111222 
TABS,ioos:station:wmo:42046:1,2009-01-04T01:00:00Z,27.8903,-94.0367,1011.41,11111222 
TABS,ioos:station:wmo:42046:1,2009-01-04T01:30:00Z,27.8903,-94.0367,1011.62,11111222 
TABS,ioos:station:wmo:42046:1,2009-01-04T02:00:00Z,27.8903,-94.0367,1011.83,11111222 
TABS,ioos:station:wmo:42046:1,2009-01-04T02:30:00Z,27.8903,-94.0367,1012.02,11111222 
TABS,ioos:station:wmo:42046:1,2009-01-04T03:00:00Z,27.8903,-94.0367,1011.9,11111222 
TABS,ioos:station:wmo:42046:1,2009-01-04T03:30:00Z,27.8903,-94.0367,1011.72,11111222 
TABS,ioos:station:wmo:42046:1,2009-01-04T04:00:00Z,27.8903,-94.0367,1012.04,11111222 
TABS,ioos:station:wmo:42046:1,2009-01-04T04:30:00Z,27.8903,-94.0367,1012.13,11111222 
TABS,ioos:station:wmo:42046:1,2009-01-04T05:00:00Z,27.8903,-94.0367,1012.05,11111222 
TABS,ioos:station:wmo:42046:1,2009-01-04T05:30:00Z,27.8903,-94.0367,1012.22,11111222 
TABS,ioos:station:wmo:42046:1,2009-01-04T06:00:00Z,27.8903,-94.0367,1012.19,11111222 
TABS,ioos:station:wmo:42046:1,2009-01-04T06:30:00Z,27.8903,-94.0367,1012.05,11111222 
TABS,ioos:station:wmo:42046:1,2009-01-04T07:00:00Z,27.8903,-94.0367,1012.02,11111222 
TABS,ioos:station:wmo:42046:1,2009-01-04T07:30:00Z,27.8903,-94.0367,1012.29,11111222 
TABS,ioos:station:wmo:42046:1,2009-01-04T08:00:00Z,27.8903,-94.0367,1012.4,11111222 
TABS,ioos:station:wmo:42046:1,2009-01-04T08:30:00Z,27.8903,-94.0367,1012.35,11111222 
TABS,ioos:station:wmo:42046:1,2009-01-04T09:00:00Z,27.8903,-94.0367,1012.47,11111222 
TABS,ioos:station:wmo:42046:1,2009-01-04T09:30:00Z,27.8903,-94.0367,1012.6,11111222 
TABS,ioos:station:wmo:42046:1,2009-01-04T10:00:00Z,27.8903,-94.0367,1012.81,11111222 
TABS,ioos:station:wmo:42046:1,2009-01-04T10:30:00Z,27.8903,-94.0367,1012.8,11111222 
TABS,ioos:station:wmo:42046:1,2009-01-04T11:00:00Z,27.8903,-94.0367,1012.75,11111222 
TABS,ioos:station:wmo:42046:1,2009-01-04T11:30:00Z,27.8903,-94.0367,1013.07,11111222 
TABS,ioos:station:wmo:42046:1,2009-01-04T12:00:00Z,27.8903,-94.0367,1013.44,11111222 
TABS,ioos:station:wmo:42046:1,2009-01-04T12:30:00Z,27.8903,-94.0367,1013.8,11111222 
TABS,ioos:station:wmo:42046:1,2009-01-04T13:00:00Z,27.8903,-94.0367,1014.46,11111222 
TABS,ioos:station:wmo:42046:1,2009-01-04T13:30:00Z,27.8903,-94.0367,1014.93,11111222 
TABS,ioos:station:wmo:42046:1,2009-01-04T14:00:00Z,27.8903,-94.0367,1015.19,11111222 
TABS,ioos:station:wmo:42046:1,2009-01-04T14:30:00Z,27.8903,-94.0367,1015.57,11111222 
TABS,ioos:station:wmo:42046:1,2009-01-04T15:00:00Z,27.8903,-94.0367,1016.21,11111222 
TABS,ioos:station:wmo:42046:1,2009-01-04T15:30:00Z,27.8903,-94.0367,1016.93,11111222 
TABS,ioos:station:wmo:42046:1,2009-01-04T16:00:00Z,27.8903,-94.0367,1017.5,11111222 
TABS,ioos:station:wmo:42046:1,2009-01-04T16:30:00Z,27.8903,-94.0367,1017.23,11111222 
TABS,ioos:station:wmo:42046:1,2009-01-04T17:00:00Z,27.8903,-94.0367,1017.22,11111222 
TABS,ioos:station:wmo:42046:1,2009-01-04T17:30:00Z,27.8903,-94.0367,1016.61,11111222 
TABS,ioos:station:wmo:42046:1,2009-01-04T18:00:00Z,27.8903,-94.0367,1016.26,11111222 
TABS,ioos:station:wmo:42046:1,2009-01-04T18:30:00Z,27.8903,-94.0367,1015.58,11111222 
TABS,ioos:station:wmo:42046:1,2009-01-04T19:00:00Z,27.8903,-94.0367,1015.22,11111222 
TABS,ioos:station:wmo:42046:1,2009-01-04T19:30:00Z,27.8903,-94.0367,1015.29,11111222 
TABS,ioos:station:wmo:42046:1,2009-01-04T20:00:00Z,27.8903,-94.0367,1015.39,11111222 
TABS,ioos:station:wmo:42046:1,2009-01-04T20:30:00Z,27.8903,-94.0367,1015.54,11111222 
TABS,ioos:station:wmo:42046:1,2009-01-04T21:00:00Z,27.8903,-94.0367,1015.29,11111222 
TABS,ioos:station:wmo:42046:1,2009-01-04T21:30:00Z,27.8903,-94.0367,1015.71,11111222 
TABS,ioos:station:wmo:42046:1,2009-01-04T22:00:00Z,27.8903,-94.0367,1015.67,11111222 
TABS,ioos:station:wmo:42046:1,2009-01-04T22:30:00Z,27.8903,-94.0367,1015.85,11111222 
TABS,ioos:station:wmo:42046:1,2009-01-04T23:00:00Z,27.8903,-94.0367,1015.95,11111222 
TABS,ioos:station:wmo:42046:1,2009-01-04T23:30:00Z,27.8903,-94.0367,1015.99,11111222 
TABS,ioos:station:wmo:42046:1,2009-01-05T00:00:00Z,27.8903,-94.0367,1016.26,11111222 
TABS,ioos:station:wmo:42046:1,2009-01-05T00:30:00Z,27.8903,-94.0367,1016.45,11111222 
TABS,ioos:station:wmo:42046:1,2009-01-05T01:00:00Z,27.8903,-94.0367,1016.7,11111222 
TABS,ioos:station:wmo:42046:1,2009-01-05T01:30:00Z,27.8903,-94.0367,1017.14,11111222 
TABS,ioos:station:wmo:42046:1,2009-01-05T02:00:00Z,27.8903,-94.0367,1017.39,11111222 
TABS,ioos:station:wmo:42046:1,2009-01-05T02:30:00Z,27.8903,-94.0367,1017.36,11111222 
TABS,ioos:station:wmo:42046:1,2009-01-05T03:00:00Z,27.8903,-94.0367,1017.66,11111222 
TABS,ioos:station:wmo:42046:1,2009-01-05T03:30:00Z,27.8903,-94.0367,1017.95,11111222 
TABS,ioos:station:wmo:42046:1,2009-01-05T04:00:00Z,27.8903,-94.0367,1017.97,11111222 
TABS,ioos:station:wmo:42046:1,2009-01-05T04:30:00Z,27.8903,-94.0367,1018.08,11111222 
TABS,ioos:station:wmo:42046:1,2009-01-05T05:00:00Z,27.8903,-94.0367,1018.24,11111222 
TABS,ioos:station:wmo:42046:1,2009-01-05T05:30:00Z,27.8903,-94.0367,1018.16,11111222 
TABS,ioos:station:wmo:42046:1,2009-01-05T06:00:00Z,27.8903,-94.0367,1017.99,11111222 
TABS,ioos:station:wmo:42046:1,2009-01-05T06:30:00Z,27.8903,-94.0367,1017.28,11111222 
TABS,ioos:station:wmo:42046:1,2009-01-05T07:00:00Z,27.8903,-94.0367,1017.29,11111222 
TABS,ioos:station:wmo:42046:1,2009-01-05T07:30:00Z,27.8903,-94.0367,1017.38,11111222 
TABS,ioos:station:wmo:42046:1,2009-01-05T08:00:00Z,27.8903,-94.0367,1017.14,11111222 
TABS,ioos:station:wmo:42046:1,2009-01-05T08:30:00Z,27.8903,-94.0367,1017.55,11111222 
TABS,ioos:station:wmo:42046:1,2009-01-05T09:00:00Z,27.8903,-94.0367,1017.07,11111222 
TABS,ioos:station:wmo:42046:1,2009-01-05T09:30:00Z,27.8903,-94.0367,1017.25,11111222 
TABS,ioos:station:wmo:42046:1,2009-01-05T10:00:00Z,27.8903,-94.0367,1017.28,11111222 
TABS,ioos:station:wmo:42046:1,2009-01-05T10:30:00Z,27.8903,-94.0367,1017.13,11111222 
TABS,ioos:station:wmo:42046:1,2009-01-05T11:00:00Z,27.8903,-94.0367,1017.15,11111222 
TABS,ioos:station:wmo:42046:1,2009-01-05T11:30:00Z,27.8903,-94.0367,1017.36,11111222 
TABS,ioos:station:wmo:42046:1,2009-01-05T12:00:00Z,27.8903,-94.0367,1017.18,11111222 
TABS,ioos:station:wmo:42046:1,2009-01-05T12:30:00Z,27.8903,-94.0367,1017.41,11111222 
TABS,ioos:station:wmo:42046:1,2009-01-05T13:00:00Z,27.8903,-94.0367,1017.54,11111222 
TABS,ioos:station:wmo:42046:1,2009-01-05T13:30:00Z,27.8903,-94.0367,1017.83,11111222 
TABS,ioos:station:wmo:42046:1,2009-01-05T14:00:00Z,27.8903,-94.0367,1017.96,11111222 
TABS,ioos:station:wmo:42046:1,2009-01-05T14:30:00Z,27.8903,-94.0367,1017.95,11111222 
TABS,ioos:station:wmo:42046:1,2009-01-05T15:00:00Z,27.8903,-94.0367,1018.13,11111222 
TABS,ioos:station:wmo:42046:1,2009-01-05T15:30:00Z,27.8903,-94.0367,1018.24,11111222 
TABS,ioos:station:wmo:42046:1,2009-01-05T16:00:00Z,27.8903,-94.0367,1017.91,11111222 
TABS,ioos:station:wmo:42046:1,2009-01-05T16:30:00Z,27.8903,-94.0367,1017.45,11111222 
TABS,ioos:station:wmo:42046:1,2009-01-05T17:00:00Z,27.8903,-94.0367,1017.25,11111222 
TABS,ioos:station:wmo:42046:1,2009-01-05T17:30:00Z,27.8903,-94.0367,1016.72,11111222 
TABS,ioos:station:wmo:42046:1,2009-01-05T18:00:00Z,27.8903,-94.0367,1015.87,11111222 
TABS,ioos:station:wmo:42046:1,2009-01-05T18:30:00Z,27.8903,-94.0367,1015.0,11111222 
TABS,ioos:station:wmo:42046:1,2009-01-05T19:00:00Z,27.8903,-94.0367,1014.26,11111222 
TABS,ioos:station:wmo:42046:1,2009-01-05T19:30:00Z,27.8903,-94.0367,1013.65,11111222 
TABS,ioos:station:wmo:42046:1,2009-01-05T20:00:00Z,27.8903,-94.0367,1013.24,11111222 
TABS,ioos:station:wmo:42046:1,2009-01-05T20:30:00Z,27.8903,-94.0367,1013.14,11111222 
TABS,ioos:station:wmo:42046:1,2009-01-05T21:00:00Z,27.8903,-94.0367,1012.7,11111222 
TABS,ioos:station:wmo:42046:1,2009-01-05T21:30:00Z,27.8903,-94.0367,1012.53,11111222 
TABS,ioos:station:wmo:42046:1,2009-01-05T22:00:00Z,27.8903,-94.0367,1012.15,11111222 
TABS,ioos:station:wmo:42046:1,2009-01-05T22:30:00Z,27.8903,-94.0367,1012.17,11111222 
TABS,ioos:station:wmo:42046:1,2009-01-05T23:00:00Z,27.8903,-94.0367,1011.9,11111222 
TABS,ioos:station:wmo:42046:1,2009-01-05T23:30:00Z,27.8903,-94.0367,1011.75,11111222 
TABS,ioos:station:wmo:42046:1,2009-01-06T00:00:00Z,27.8903,-94.0367,1011.68,11111222 
TABS,ioos:station:wmo:42046:1,2009-01-06T00:30:00Z,27.8903,-94.0367,1011.7,11111222 
TABS,ioos:station:wmo:42046:1,2009-01-06T01:00:00Z,27.8903,-94.0367,1012.02,11111222 
TABS,ioos:station:wmo:42046:1,2009-01-06T01:30:00Z,27.8903,-94.0367,1012.19,11111222 
TABS,ioos:station:wmo:42046:1,2009-01-06T02:00:00Z,27.8903,-94.0367,1012.09,11111222 
TABS,ioos:station:wmo:42046:1,2009-01-06T02:30:00Z,27.8903,-94.0367,1012.08,11111222 
TABS,ioos:station:wmo:42046:1,2009-01-06T03:00:00Z,27.8903,-94.0367,1012.21,11111222 
TABS,ioos:station:wmo:42046:1,2009-01-06T03:30:00Z,27.8903,-94.0367,1012.1,11111222 
TABS,ioos:station:wmo:42046:1,2009-01-06T04:00:00Z,27.8903,-94.0367,1011.86,11111222 
TABS,ioos:station:wmo:42046:1,2009-01-06T04:30:00Z,27.8903,-94.0367,1011.42,11111222 
TABS,ioos:station:wmo:42046:1,2009-01-06T05:00:00Z,27.8903,-94.0367,1011.15,11111222 
TABS,ioos:station:wmo:42046:1,2009-01-06T05:30:00Z,27.8903,-94.0367,1010.78,11111222 
TABS,ioos:station:wmo:42046:1,2009-01-06T06:00:00Z,27.8903,-94.0367,1010.29,11111222 
TABS,ioos:station:wmo:42046:1,2009-01-06T06:30:00Z,27.8903,-94.0367,1009.53,11111222 
TABS,ioos:station:wmo:42046:1,2009-01-06T07:00:00Z,27.8903,-94.0367,1009.08,11111222 
TABS,ioos:station:wmo:42046:1,2009-01-06T07:30:00Z,27.8903,-94.0367,1008.51,11111222 
TABS,ioos:station:wmo:42046:1,2009-01-06T08:00:00Z,27.8903,-94.0367,1008.24,11111222 
TABS,ioos:station:wmo:42046:1,2009-01-06T08:30:00Z,27.8903,-94.0367,1007.93,11111222 
TABS,ioos:station:wmo:42046:1,2009-01-06T09:00:00Z,27.8903,-94.0367,1007.76,11111222 
TABS,ioos:station:wmo:42046:1,2009-01-06T09:30:00Z,27.8903,-94.0367,1007.1,11111222 
TABS,ioos:station:wmo:42046:1,2009-01-06T10:00:00Z,27.8903,-94.0367,1006.74,11111222 
TABS,ioos:station:wmo:42046:1,2009-01-06T10:30:00Z,27.8903,-94.0367,1006.54,11111222 
TABS,ioos:station:wmo:42046:1,2009-01-06T11:00:00Z,27.8903,-94.0367,1006.31,11111222 
TABS,ioos:station:wmo:42046:1,2009-01-06T11:30:00Z,27.8903,-94.0367,1006.0,11111222 
TABS,ioos:station:wmo:42046:1,2009-01-06T12:00:00Z,27.8903,-94.0367,1005.59,11111222 
TABS,ioos:station:wmo:42046:1,2009-01-06T12:30:00Z,27.8903,-94.0367,1006.43,11111222 
TABS,ioos:station:wmo:42046:1,2009-01-06T13:00:00Z,27.8903,-94.0367,1006.75,11111222 
TABS,ioos:station:wmo:42046:1,2009-01-06T13:30:00Z,27.8903,-94.0367,1006.49,11111222 
TABS,ioos:station:wmo:42046:1,2009-01-06T14:00:00Z,27.8903,-94.0367,1006.45,11111222 
TABS,ioos:station:wmo:42046:1,2009-01-06T14:30:00Z,27.8903,-94.0367,1006.64,11111222 
TABS,ioos:station:wmo:42046:1,2009-01-06T15:00:00Z,27.8903,-94.0367,1006.49,11111222 
TABS,ioos:station:wmo:42046:1,2009-01-06T15:30:00Z,27.8903,-94.0367,1006.43,11111222 
TABS,ioos:station:wmo:42046:1,2009-01-06T16:00:00Z,27.8903,-94.0367,1007.02,11111222 
TABS,ioos:station:wmo:42046:1,2009-01-06T16:30:00Z,27.8903,-94.0367,1007.26,11111222 
TABS,ioos:station:wmo:42046:1,2009-01-06T17:00:00Z,27.8903,-94.0367,1007.25,11111222 
TABS,ioos:station:wmo:42046:1,2009-01-06T17:30:00Z,27.8903,-94.0367,1007.17,11111222 
TABS,ioos:station:wmo:42046:1,2009-01-06T18:00:00Z,27.8903,-94.0367,1006.9,11111222 
TABS,ioos:station:wmo:42046:1,2009-01-06T18:30:00Z,27.8903,-94.0367,1006.64,11111222 